DW8398 Weather Reports


time (UTC)temp
F
wind
direction
speed
knots
gust
knots
rain 1hr
in
rain 24hr
in
rain mn
in
humidity
%
barometer
mb
20260504110536 36 0 0.0 0.0 0.00 0.00 0.00 94 1011.8
20260504100536 33 0 0.0 0.0 0.00 0.00 0.00 93 1011.6
20260504081547 34 0 0.0 0.0 0.00 0.00 0.00 92 1011.2
20260504081036 34 0 0.0 0.0 0.00 0.00 0.00 92 1011.3
20260504080538 34 0 0.0 0.0 0.00 0.00 0.00 92 1011.3
20260504050536 37 0 0.0 0.0 0.00 0.00 0.00 90 1010.8
20260504045544 37 0 0.0 0.0 0.00 0.00 0.00 90 1010.8
20260504045036 37 0 0.0 0.0 0.00 0.00 0.00 90 1010.9
20260504044555 37 0 0.0 0.0 0.00 0.00 0.00 90 1011.0
20260504044039 37 0 0.0 0.0 0.00 0.00 0.00 90 1011.1
20260504043541 37 0 0.0 0.0 0.00 0.00 0.00 90 1011.1
20260504043046 37 0 0.0 0.0 0.00 0.00 0.00 90 1011.1
20260504042538 37 0 0.0 0.0 0.00 0.00 0.00 90 1011.2
20260504042039 37 0 0.0 0.0 0.00 0.00 0.00 90 1011.2
20260504041546 36 0 0.0 0.0 0.00 0.00 0.00 90 1011.1
20260504041038 36 0 0.0 0.0 0.00 0.00 0.00 89 1011.1
20260504040538 36 0 0.0 0.0 0.00 0.00 0.00 89 1011.0
20260504040111 36 0 0.0 0.0 0.00 0.00 0.00 88 1011.1
20260504035540 36 0 0.0 0.0 0.00 0.00 0.00 88 1011.0
20260504035038 36 0 0.0 0.0 0.00 0.00 0.00 87 1011.0
20260504034544 36 0 0.0 0.0 0.00 0.00 0.00 87 1011.0
20260504034039 36 0 0.0 0.0 0.00 0.00 0.00 86 1011.0
20260504033541 36 0 0.0 0.0 0.00 0.00 0.00 87 1010.9
20260504033048 37 0 0.0 0.0 0.00 0.00 0.00 86 1010.9
20260504032541 37 0 0.0 0.0 0.00 0.00 0.00 85 1011.0
20260504032035 37 0 0.0 0.0 0.00 0.00 0.00 85 1011.0
20260504031555 37 0 0.0 0.0 0.00 0.00 0.00 85 1011.0
20260504031036 38 0 0.0 0.0 0.00 0.00 0.00 85 1010.8
20260504030536 38 0 0.0 0.0 0.00 0.00 0.00 85 1010.8
20260504030050 38 0 0.0 0.0 0.00 0.00 0.00 85 1010.7
20260504025537 38 0 0.0 0.0 0.00 0.00 0.00 84 1010.6
20260504025036 38 0 0.0 0.0 0.00 0.00 0.00 84 1010.6
20260504024546 39 0 0.0 0.0 0.00 0.00 0.00 83 1010.7
20260504024038 39 0 0.0 0.9 0.00 0.00 0.00 82 1010.7
20260504023538 39 0 0.0 0.9 0.00 0.00 0.00 81 1010.7
20260504023050 40 0 0.0 0.0 0.00 0.00 0.00 81 1010.7
20260504022539 40 0 0.0 0.0 0.00 0.00 0.00 81 1010.8
20260504022038 40 0 0.0 0.0 0.00 0.00 0.00 80 1010.7
20260504021545 40 0 0.0 0.0 0.00 0.00 0.00 80 1010.7
20260504021039 41 0 0.0 0.9 0.00 0.00 0.00 80 1010.7
20260504020539 41 0 0.0 0.9 0.00 0.00 0.00 79 1010.7
20260504020055 41 0 0.0 0.0 0.00 0.00 0.00 79 1010.7
20260504015538 42 0 0.0 0.0 0.00 0.00 0.00 79 1010.7
20260504015036 42 0 0.0 0.9 0.00 0.00 0.00 78 1010.7
20260504014542 42 0 0.0 1.7 0.00 0.00 0.00 77 1010.6
20260504014035 43 0 0.0 1.7 0.00 0.00 0.00 77 1010.6
20260504013538 43 0 0.0 1.7 0.00 0.00 0.00 76 1010.5
20260504013046 44 0 0.0 0.0 0.00 0.00 0.00 75 1010.5
20260504012536 44 0 0.0 0.0 0.00 0.00 0.00 74 1010.5
20260504012038 44 0 0.0 0.0 0.00 0.00 0.00 73 1010.5
20260504011549 44 0 0.0 0.0 0.00 0.00 0.00 72 1010.4
20260504011038 45 0 0.0 0.0 0.00 0.00 0.00 73 1010.4
20260504010535 45 0 0.0 0.9 0.00 0.00 0.00 72 1010.4
20260504010050 45 0 0.0 0.9 0.00 0.00 0.00 72 1010.2
20260504005538 45 0 0.0 0.9 0.00 0.00 0.00 71 1010.3
20260504005042 46 0 0.0 0.9 0.00 0.00 0.00 69 1010.2
20260504004545 46 0 0.0 0.9 0.00 0.00 0.00 69 1010.1
20260504004040 47 0 0.0 0.0 0.00 0.00 0.00 68 1010.1
20260504003541 47 0 0.0 0.0 0.00 0.00 0.00 67 1010.0
20260504003044 48 0 0.0 0.0 0.00 0.00 0.00 64 1010.0
20260504002536 49 0 0.0 0.0 0.00 0.00 0.00 64 1009.9
20260504002037 49 0 0.0 0.0 0.00 0.00 0.00 60 1009.8
20260504001553 50 0 0.0 0.0 0.00 0.00 0.00 58 1009.8
20260504001036 50 0 0.0 0.9 0.00 0.00 0.00 62 1009.7
20260504000535 51 0 0.0 2.6 0.00 0.00 0.00 59 1009.6
20260504000050 51 0 0.0 2.6 0.00 0.00 0.00 56 1009.6
20260503235539 51 0 0.0 2.6 0.00 0.00 0.00 49 1009.5
20260503235038 52 0 0.0 1.7 0.00 0.00 0.00 51 1009.4
20260503234612 52 0 0.0 3.5 0.00 0.00 0.00 52 1009.3
20260503234041 52 0 0.0 3.5 0.00 0.00 0.00 55 1009.3
20260503233541 52 0 0.9 3.5 0.00 0.00 0.00 49 1009.3
20260503233049 52 0 0.0 0.0 0.00 0.00 0.00 54 1009.3
20260503232535 53 0 0.0 0.9 0.00 0.00 0.00 48 1009.3
20260503232039 53 0 0.0 0.9 0.00 0.00 0.00 52 1009.2
20260503231552 53 0 0.0 0.0 0.00 0.00 0.00 54 1009.1
20260503231038 54 0 0.0 0.9 0.00 0.00 0.00 50 1009.1
20260503230542 54 0 0.0 1.7 0.00 0.00 0.00 47 1009.0
20260503230051 54 0 0.0 1.7 0.00 0.00 0.00 50 1009.0
20260503225539 54 0 0.0 0.9 0.00 0.00 0.00 49 1008.9
20260503225036 54 0 0.0 0.9 0.00 0.00 0.00 47 1008.9
20260503224548 54 0 0.0 0.9 0.00 0.00 0.00 45 1008.9
20260503224040 54 0 0.0 1.7 0.00 0.00 0.00 45 1008.9
20260503223539 55 0 0.0 2.6 0.00 0.00 0.00 42 1008.8
20260503223051 55 164 0.0 5.2 0.00 0.00 0.00 46 1008.8
20260503222543 57 53 0.9 7.0 0.00 0.00 0.00 38 1008.7
20260503222035 58 0 2.6 7.0 0.00 0.00 0.00 35 1008.7
20260503221557 58 53 0.9 5.2 0.00 0.00 0.00 35 1008.7
20260503221036 58 292 1.7 7.8 0.00 0.00 0.00 38 1008.7
20260503220539 58 0 3.5 7.8 0.00 0.00 0.00 34 1008.7
20260503220057 58 273 4.3 7.8 0.00 0.00 0.00 35 1008.8
20260503215539 59 279 1.7 4.3 0.00 0.00 0.00 35 1008.8
20260503215035 59 297 0.0 3.5 0.00 0.00 0.00 37 1008.7
20260503214547 58 247 0.9 8.7 0.00 0.00 0.00 39 1008.6
20260503214039 58 104 0.9 8.7 0.00 0.00 0.00 36 1008.7
20260503213539 59 294 3.5 7.8 0.00 0.00 0.00 34 1008.7
20260503213048 59 252 0.9 8.7 0.00 0.00 0.00 35 1008.8
20260503212539 59 347 0.9 8.7 0.00 0.00 0.00 33 1008.8
20260503212038 59 266 1.7 8.7 0.00 0.00 0.00 36 1008.7
20260503211544 58 288 0.9 7.8 0.00 0.00 0.00 36 1008.6
20260503211040 59 10 1.7 7.8 0.00 0.00 0.00 34 1008.7
20260503210539 59 266 2.6 6.1 0.00 0.00 0.00 35 1008.7
20260503210046 59 288 0.9 6.1 0.00 0.00 0.00 37 1008.6
20260503205541 59 266 0.9 6.1 0.00 0.00 0.00 39 1008.7
20260503205039 59 344 0.9 7.8 0.00 0.00 0.00 38 1008.7
20260503204547 59 267 2.6 7.8 0.00 0.00 0.00 43 1008.8
20260503204038 59 252 1.7 7.8 0.00 0.00 0.00 40 1008.8
20260503203536 58 0 0.9 5.2 0.00 0.00 0.00 43 1008.8
20260503203055 57 0 0.9 8.7 0.00 0.00 0.00 41 1008.8
20260503202538 57 76 0.9 9.6 0.00 0.00 0.00 42 1008.8
20260503202042 57 313 5.2 9.6 0.00 0.00 0.00 42 1008.9
20260503201551 57 296 1.7 5.2 0.00 0.00 0.00 40 1008.9
20260503201039 55 35 0.0 3.5 0.00 0.00 0.00 43 1008.9
20260503200539 55 59 0.9 3.5 0.00 0.00 0.00 39 1009.0
20260503200050 56 0 0.0 5.2 0.00 0.00 0.00 45 1009.1
20260503195543 56 286 1.7 6.1 0.00 0.00 0.00 42 1009.1
20260503195036 56 271 0.9 6.1 0.00 0.00 0.00 41 1009.2
20260503194556 56 302 0.9 7.0 0.00 0.00 0.00 39 1009.2
20260503194036 56 304 1.7 8.7 0.00 0.00 0.00 44 1009.2
20260503193538 56 284 3.5 10.4 0.00 0.00 0.00 44 1009.3
20260503193047 55 304 5.2 10.4 0.00 0.00 0.00 46 1009.3
20260503192536 54 300 0.9 5.2 0.00 0.00 0.00 43 1009.3
20260503192039 53 289 0.9 3.5 0.00 0.00 0.00 42 1009.4
20260503191552 53 252 0.9 6.1 0.00 0.00 0.00 42 1009.5
20260503191041 54 308 1.7 6.1 0.00 0.00 0.00 45 1009.6
20260503190538 54 330 2.6 6.1 0.00 0.00 0.00 43 1009.7
20260503190047 54 294 1.7 6.1 0.00 0.00 0.00 46 1009.7
20260503185539 54 49 1.7 6.1 0.00 0.00 0.00 45 1009.7
20260503185039 56 288 1.7 9.6 0.00 0.00 0.00 44 1009.8
20260503184546 55 63 2.6 10.4 0.00 0.00 0.00 42 1009.9
20260503184039 55 280 5.2 10.4 0.00 0.00 0.00 48 1009.9
20260503183537 54 10 0.9 7.8 0.00 0.00 0.00 43 1009.8
20260503183051 53 41 1.7 7.8 0.00 0.00 0.00 47 1010.0
20260503182536 53 241 0.9 4.3 0.00 0.00 0.00 50 1010.3
20260503182039 52 165 0.9 7.8 0.00 0.00 0.00 47 1010.1
20260503181544 51 309 1.7 7.8 0.00 0.00 0.00 49 1010.1
20260503181039 51 276 1.7 5.2 0.00 0.00 0.00 51 1010.1
20260503180536 50 173 0.9 5.2 0.00 0.00 0.00 48 1010.2
20260503180058 51 275 0.9 3.5 0.00 0.00 0.00 49 1010.1
20260503175536 51 270 0.9 7.8 0.00 0.00 0.00 49 1010.0
20260503175038 51 264 0.9 7.8 0.00 0.00 0.00 49 1010.1
20260503174557 51 315 0.9 7.0 0.00 0.00 0.00 47 1010.0
20260503174039 51 311 0.9 8.7 0.00 0.00 0.00 51 1010.0
20260503173536 51 286 1.7 8.7 0.00 0.00 0.00 45 1010.1
20260503173047 51 0 1.7 7.0 0.00 0.00 0.00 50 1010.1
20260503172540 51 302 1.7 7.0 0.00 0.00 0.00 52 1010.1
20260503172039 50 287 2.6 8.7 0.00 0.00 0.00 48 1010.1
20260503171550 50 277 5.2 8.7 0.00 0.00 0.00 49 1010.1
20260503171039 51 279 2.6 9.6 0.00 0.00 0.00 51 1010.0
20260503170539 51 306 2.6 9.6 0.00 0.00 0.00 46 1010.1
20260503150536 48 325 0.0 7.0 0.00 0.00 0.00 55 1010.2
20260503131038 46 279 0.9 6.1 0.00 0.10 0.00 68 1010.7
20260503130542 46 302 1.7 6.1 0.00 0.10 0.00 68 1010.8